This demonstration page uses our WeatherBlox Daily Observations layout. Learn more.

Left ArrowRight Arrow

38.20091, -84.87328

Hourly Observations for March 1, 2015

Temp ( °F °C ) Dew Point ( °F °C ) Humidity (%) Winds ( mph kmh ) Pressure ( in mb ) Visibility ( mi km ) Precip ( " mm )
12:53 am 00:53 undefined 31 -0.6 18 -7.8 59 59 ENE 5 7 30.45 1031 10 16 0.00 0.00
1:53 am 01:53 undefined 31 -0.6 20 -6.7 64 64 NE 5 7 30.44 1031 10 16 0.00 0.00
2:53 am 02:53 undefined 31 -0.6 23 -5 72 72 ENE 3 6 30.42 1030 10 16 0.00 0.00
3:53 am 03:53 undefined 31 -0.6 23 -5 72 72 E 6 9 30.40 1029 10 16 0.00 0.00
4:53 am 04:53 undefined 31 -0.6 22 -5.6 69 69 ENE 3 6 30.40 1029 10 16 0.00 0.00
5:53 am 05:53 undefined 31 -0.6 23 -5 72 72 ENE 3 6 30.40 1030 10 16 0.00 0.03
6:53 am 06:53 Mostly Clear with Light Wintry Mix 31 -0.6 24 -4.4 76 76 Calm 30.40 1030 8 13 0.00 0.03
7:40 am 07:40 Partly Cloudy with Light Freezing Rain 31 -0.6 25 -3.9 79 79 Calm 30.45 1031 8 13 0.01 0.25
7:53 am 07:53 Partly Cloudy with Light Freezing Rain 31 -0.6 26 -3.3 82 82 ESE 5 7 30.40 1029 4 6 0.03 0.76
8:53 am 08:53 Partly Cloudy with Light Freezing Rain 32 0 28 -2.2 85 85 SSE 6 9 30.39 1029 4 6 0.04 1.02
9:48 am 09:48 Partly Cloudy with Light Wintry Mix 34 1 30 -1 87 87 S 6 9 30.42 1030 4 6 0.04 1.02
9:53 am 09:53 Partly Cloudy with Light Rain 34 1.1 31 -0.6 89 89 S 5 7 30.38 1029 4 6 0.04 1.02
10:53 am 10:53 Cloudy with Light Rain 36 2.2 33 0.6 89 89 SSW 6 9 30.37 1029 5 8 0.04 1.02
11:24 am 11:24 Cloudy with Light Rain 37 2.8 34 1.1 89 89 S 5 7 30.39 1029 4 6 0.02 0.51
11:53 am 11:53 Cloudy with Light Rain 38 3.3 35 1.7 89 89 SSW 7 11 30.35 1028 3 5 0.04 1.02
12:36 pm 12:36 Cloudy with Light Rain 40 4.4 37 2.8 89 89 SSW 9 15 30.33 1027 4 6 0.02 0.51
12:53 pm 12:53 Cloudy with Mist and Fog 41 5 38 3.3 89 89 SSW 7 11 30.32 1027 5 8 0.02 0.51
1:01 pm 13:01 Cloudy with Mist and Fog 41 5 38 3.3 89 89 SSW 9 15 30.33 1027 5 8 0.00 0.00
1:15 pm 13:15 Cloudy with Light Rain 41 5 38 3.3 89 89 SW 9 15 30.33 1027 5 8 0.00 0.03
1:53 pm 13:53 Cloudy with Mist and Fog 42 5.6 39 3.9 89 89 SSW 10 17 30.29 1026 6 10 0.00 0.03
2:53 pm 14:53 Cloudy with Mist and Fog 42 5.6 39 3.9 89 89 SSW 8 13 30.27 1025 6 10 0.00 0.00
3:53 pm 15:53 Cloudy with Mist and Fog 41 5 39 3.9 93 93 SW 9 15 30.28 1025 4 6 0.00 0.00
4:03 pm 16:03 Cloudy with Mist and Fog 41 5 39 3.9 93 93 SW 8 13 30.27 1025 3 5 0.00 0.00
4:21 pm 16:21 Cloudy with Mist and Fog 41 5 39 3.9 93 93 WSW 6 9 30.27 1025 3 4 0.00 0.00
4:45 pm 16:45 Cloudy with Mist and Fog 41 5 39 3.9 93 93 SW 7 11 30.27 1025 2 2 0.00 0.00
4:53 pm 16:53 Cloudy with Mist and Fog 41 5 39 3.9 93 93 WSW 6 9 30.27 1025 1 2 0.00 0.00
5:01 pm 17:01 Cloudy with Mist and Fog 41 5 40 4.4 96 96 WSW 6 9 30.27 1025 1 2 0.00 0.00
5:10 pm 17:10 Cloudy with Mist and Fog 41 5 40 4.4 96 96 WSW 5 7 30.30 1026 1 1 0.00 0.00
5:53 pm 17:53 Cloudy with Mist and Fog 38 3.3 37 2.8 97 97 NW 9 15 30.29 1026 1 1 0.00 0.00
6:00 pm 18:00 Cloudy with Mist and Fog 38 3.3 37 2.8 97 97 NW 8 13 30.30 1026 1 2 0.00 0.00
6:35 pm 18:35 Cloudy with Mist and Fog 37 2.8 36 2.2 96 96 WNW 5 7 30.30 1026 1 2 0.00 0.00
6:53 pm 18:53 Cloudy with Mist and Fog 37 2.8 36 2.2 96 96 WNW 5 7 30.29 1026 2 3 0.00 0.00
7:46 pm 19:46 Cloudy with Mist and Fog 36 2.2 35 1.7 97 97 WNW 7 11 30.36 1028 2 3 0.00 0.00
7:53 pm 19:53 Cloudy with Mist and Fog 36 2.2 35 1.7 97 97 WNW 5 7 30.30 1026 2 3 0.00 0.00
8:12 pm 20:12 Cloudy with Mist and Fog 36 2.2 35 1.7 97 97 WNW 3 6 30.33 1027 2 2 0.00 0.00
8:48 pm 20:48 Cloudy with Mist and Fog 36 2 34 1 93 93 W 3 6 30.33 1027 2 3 0.00 0.00
8:53 pm 20:53 Cloudy with Mist and Fog 36 2.2 35 1.7 97 97 W 3 6 30.30 1026 2 3 0.00 0.00
9:20 pm 21:20 Cloudy with Mist and Fog 36 2.2 34 1.1 93 93 W 6 9 30.33 1027 2 3 0.00 0.00
9:53 pm 21:53 Cloudy with Mist and Fog 35 1.7 34 1.1 96 96 WNW 6 9 30.30 1026 2 3 0.00 0.00
10:02 pm 22:02 Cloudy with Mist and Fog 35 1.7 34 1.1 96 96 WNW 6 9 30.36 1028 2 3 0.00 0.00
10:29 pm 22:29 Cloudy with Mist and Fog 35 1.7 33 0.6 93 93 WNW 8 13 30.36 1028 2 3 0.00 0.00
10:44 pm 22:44 Cloudy with Mist and Fog 35 1.7 33 0.6 93 93 WNW 6 9 30.36 1028 3 4 0.00 0.00
10:53 pm 22:53 Cloudy with Mist and Fog 35 1.7 33 0.6 93 93 WNW 7 11 30.33 1027 3 4 0.00 0.00
11:00 pm 23:00 Cloudy with Mist and Fog 34 1.1 32 0 92 92 NW 7 11 30.36 1028 3 5 0.00 0.00
11:11 pm 23:11 Cloudy with Mist and Fog 34 1.1 32 0 92 92 WNW 7 11 30.39 1029 3 5 0.00 0.00
11:18 pm 23:18 Cloudy with Mist and Fog 34 1.1 32 0 92 92 NW 8 13 30.39 1029 3 4 0.00 0.00
11:53 pm 23:53 Cloudy with Mist and Fog 34 1.1 32 0 92 92 WNW 7 11 30.34 1028 3 4 0.00 0.00

Powered by AerisWeather